[[{"header":{"parameterUnit":"m.s-1","parameterCategory":1,"la1":30.2991,"la2":30.254,"lo1":-89.0895,"lo2":-89.0444,"dx":0.0017,"dy":0.0017,"nx":28,"ny":28,"refTime":"2023-01-20T09:00:00:Z","depth":0,"parameterNumber":2,"parameterNumberName":"U-component_of_WINDS"},"data":[0,0,0,0,0,0,0,0,0,0,0,0,0,0,0,0,0,0,0,0,0,0,0,0,0,0,0,0,0,0,0,0,0,0,0,0,0,0,0,0,0,0,0,0,0,0,0,0,0,0,0,0,0,0,0,0,0,0,-4.8509,-4.8509,0,-4.8497,-4.8497,-4.8496,-4.8363,-4.8359,-4.8356,-4.8353,-4.8342,-4.8345,-4.8348,0,0,0,0,0,0,0,0,0,0,0,0,0,-4.842,-4.8422,-4.851,-4.8509,-4.8509,-4.8497,-4.8497,-4.8496,-4.8363,-4.8359,-4.8355,-4.8351,-4.8341,-4.8344,-4.8348,0,0,0,0,0,0,0,0,0,0,0,0,0,-4.8438,-4.8423,-4.851,-4.8441,-4.8435,-4.8497,-4.8497,-4.8496,-4.8364,-4.8359,-4.8354,-4.8349,-4.834,-4.8344,-4.8348,-4.8475,0,0,-4.8361,-4.8363,0,0,0,0,0,0,0,0,-4.8438,-4.8442,-4.8451,-4.8446,-4.8439,-4.8426,-4.8461,-4.8489,-4.8365,-4.8391,-4.8353,-4.8347,-4.8374,-4.8375,-4.8384,-4.8475,-4.8474,-4.8362,-4.8364,-4.8366,-4.8367,0,0,0,0,0,0,0,-4.8436,-4.8442,-4.8504,-4.8452,-4.8444,-4.8412,-4.8409,-4.8466,-4.8411,-4.8389,-4.8379,-4.8379,-4.837,-4.838,-4.8383,-4.8474,-4.8362,-4.8365,-4.8368,-4.837,-4.8669,-4.8674,0,0,0,0,0,0,-4.8444,-4.8441,-4.8505,-4.8504,-4.8426,-4.8417,-4.8414,-4.8435,-4.841,-4.8401,-4.8383,-4.8373,-4.8375,-4.8378,-4.8382,-4.8529,-4.8366,-4.837,-4.8372,-4.8663,-4.867,-4.8676,0,0,0,0,0,0,-4.8443,-4.8451,-4.8505,-4.847,-4.8474,-4.8424,-4.8449,-4.8438,-4.8448,-4.8406,-4.8396,-4.8404,-4.8372,-4.8376,-4.8453,-4.8527,-4.8372,-4.8376,-4.8657,-4.8665,-4.8673,-4.8826,0,0,0,0,0,0,-4.8441,-4.8452,-4.8499,-4.8472,-4.8477,-4.8577,-4.8454,-4.8441,-4.8455,-4.8442,-4.8423,-4.8415,-4.8368,-4.8447,-4.8457,-4.853,-4.8379,-4.865,-4.8661,-4.867,-4.8814,-4.8838,-4.8859,0,0,0,0,0,-4.8438,-4.8543,-4.8502,-4.8511,-4.8535,-4.8581,-4.8584,-4.8527,-4.8462,-4.851,-4.8483,-4.8415,-4.8517,-4.8456,-4.8466,-4.8542,-4.8645,-4.8658,-4.8669,-4.8804,-4.8833,-4.8858,0,0,0,0,0,0,-4.8581,-4.8538,-4.8493,-4.8592,-4.8591,-4.8559,-4.8617,-4.856,-4.8579,-4.8565,-4.8495,-4.8492,-4.858,-4.8568,-4.8501,-4.8663,-4.8569,-4.8584,-4.8668,-4.8696,-4.8718,-4.872,-4.8383,0,0,0,0,0,-4.8624,-4.8665,-4.8625,-4.8716,-4.8718,-4.8668,-4.8686,-4.8642,-4.8639,-4.8638,-4.8617,-4.8617,-4.8649,-4.8671,-4.8698,-4.8811,-4.8805,-4.8868,-4.889,-4.8909,-4.8923,-4.8982,-4.901,-4.8716,-4.8715,-4.8715,0,0,-4.8714,-4.8695,-4.8725,-4.8745,-4.8739,-4.8783,-4.8669,-4.872,-4.8753,-4.8646,-4.8718,-4.8702,-4.8697,-4.8793,-4.8834,-4.8786,-4.9003,-4.8924,-4.8939,-4.8943,-4.8998,-4.9026,-4.905,-4.8724,-4.8722,-4.8721,0,0,-4.8899,-4.8889,-4.8964,-4.8961,-4.8953,-4.8919,-4.8937,-4.8913,-4.8898,-4.8969,-4.889,-4.8927,-4.8984,-4.8984,-4.8991,-4.9176,-4.9116,-4.9187,-4.9305,-4.9364,-4.9387,-4.9407,-4.9474,-4.9499,-4.9201,-4.9201,-4.9201,0,-4.9012,-4.9074,-4.901,-4.9067,-4.9078,-4.8983,-4.9059,-4.9058,-4.9061,-4.9071,-4.9017,-4.9085,-4.9075,-4.917,-4.9215,-4.9224,-4.9243,-4.919,-4.9388,-4.9408,-4.9426,-4.9489,-4.9515,-4.921,-4.9209,-4.9208,-4.9207,0,-4.9213,-4.9258,-4.932,-4.9324,-4.9342,-4.9408,-4.9354,-4.938,-4.9335,-4.9306,-4.938,-4.9364,-4.9386,-4.9405,-4.9362,-4.9494,-4.9465,-4.9401,-4.9305,-4.9464,-4.9522,-4.9546,-4.9223,-4.9219,-4.9217,-4.9215,0,0,-4.9491,-4.9457,-4.9481,-4.9482,-4.9466,-4.95,-4.9562,-4.9582,-4.9607,-4.9611,-4.9662,-4.9711,-4.9652,-4.966,-4.9616,-4.9667,-4.9816,-4.9596,-4.9595,-4.9639,-4.9962,-5.0012,-5.0041,-4.9775,-4.9779,-4.9783,-4.9963,0,-4.967,-4.9774,-4.9717,-4.9829,-4.987,-4.9779,-4.9833,-4.983,-4.9805,-4.9837,-4.9809,-4.9846,-4.9763,-4.9768,-4.9815,-4.9788,-4.988,-4.9774,-4.9823,-4.9825,-4.9829,-5.0071,-5.0124,-5.0295,-4.9985,-4.9989,-4.9992,0,-4.9894,-4.9908,-5.0024,-5.0,-5.0015,-5.0065,-5.0079,-5.011,-5.0105,-5.0083,-5.0092,-5.0035,-5.0095,-4.9999,-5.0081,-5.001,-5.0026,-5.0016,-5.0021,-5.0025,-4.992,-5.0083,-5.0348,-5.0374,-5.0027,-5.0024,-5.0022,0,-5.0087,-5.0133,-5.0208,-5.0212,-5.0186,-5.0223,-5.0214,-5.0203,-5.022,-5.0232,-5.0242,-5.0263,-5.0274,-5.0291,-5.0241,-5.0176,-5.0331,-5.023,-5.0315,-5.0317,-5.0353,-5.0352,-5.0626,-5.0362,-5.0361,-5.0361,-5.036,0,-5.0294,-5.0369,-5.0294,-5.0341,-5.0422,-5.0356,-5.0439,-5.042,-5.0411,-5.0453,-5.0375,-5.0417,-5.0347,-5.0382,-5.0343,-5.0417,-5.0422,-5.0407,-5.0396,-5.0415,-5.0418,-5.0426,-5.0414,-5.0367,-5.0366,-5.0365,-5.0364,0,-5.0524,-5.0476,-5.0553,-5.0521,-5.0515,-5.0577,-5.055,-5.0592,-5.0561,-5.0615,-5.0624,-5.0576,-5.0613,-5.0564,-5.0596,-5.0569,-5.0672,-5.0642,-5.0674,-5.0666,-5.0754,-5.0747,-5.1045,-5.1081,-5.0792,-5.0795,-5.0797,0,-5.066,-5.0715,-5.069,-5.0712,-5.0707,-5.0744,-5.076,-5.0697,-5.0717,-5.0714,-5.0757,-5.0787,-5.0807,-5.087,-5.0838,-5.0862,-5.0833,-5.0936,-5.0837,-5.0854,-5.0837,-5.0835,-5.084,-5.0957,-5.0961,-5.0963,-5.0966,0,-5.0908,-5.0882,-5.0907,-5.0925,-5.0946,-5.0957,-5.0963,-5.0985,-5.0919,-5.0946,-5.0981,-5.0997,-5.1029,-5.106,-5.1076,-5.1067,-5.1007,-5.0997,-5.1018,-5.1039,-5.1055,-5.1049,-5.0731,-5.0991,-5.0988,-5.0986,-5.0985,-5.0984,-5.1095,-5.114,-5.113,-5.1161,-5.1158,-5.1165,-5.1203,-5.1176,-5.1205,-5.1225,-5.1186,-5.1232,-5.1225,-5.1239,-5.1237,-5.1273,-5.1228,-5.1259,-5.1267,-5.1276,-5.129,-5.1048,-5.1275,-5.1274,-5.1274,-5.1273,-5.1272,0,-5.134,-5.1328,-5.1358,-5.1367,-5.1392,-5.1331,-5.1334,-5.1359,-5.14,-5.1398,-5.1419,-5.1461,-5.149,-5.1461,-5.1485,-5.1519,-5.1492,-5.1527,-5.1525,-5.1524,-5.1328,-5.1308,-5.1549,-5.1549,-5.1549,-5.1549,-5.1549,-5.1549,-5.1471,-5.1544,-5.1517,-5.1588,-5.1575,-5.1619,-5.1626,-5.1632,-5.163,-5.1679,-5.1703,-5.1683,-5.167,-5.1692,-5.1717,-5.1707,-5.172,-5.1766,-5.1748,-5.1565,-5.1538,-5.1512,-5.1493,-5.1769,-5.177,-5.1941,-5.1943,-5.1944]},{"header":{"parameterUnit":"m.s-1","parameterCategory":1,"la1":30.2991,"la2":30.254,"lo1":-89.0895,"lo2":-89.0444,"dx":0.0017,"dy":0.0017,"nx":28,"ny":28,"refTime":"2023-01-20T09:00:00:Z","depth":0,"parameterNumber":3,"parameterNumberName":"V-component_of_WINDS"},"data":[0,0,0,0,0,0,0,0,0,0,0,0,0,0,0,0,0,0,0,0,0,0,0,0,0,0,0,0,0,0,0,0,0,0,0,0,0,0,0,0,0,0,0,0,0,0,0,0,0,0,0,0,0,0,0,0,0,0,-2.9779,-2.9779,0,-2.9796,-2.9796,-2.9796,-2.9779,-2.9778,-2.9777,-2.9777,-2.9793,-2.9794,-2.9795,0,0,0,0,0,0,0,0,0,0,0,0,0,-2.9729,-2.973,-2.9779,-2.9779,-2.9779,-2.9796,-2.9796,-2.9796,-2.9779,-2.9778,-2.9777,-2.9776,-2.9793,-2.9794,-2.9795,0,0,0,0,0,0,0,0,0,0,0,0,0,-2.9749,-2.973,-2.9779,-2.9773,-2.9772,-2.9796,-2.9796,-2.9797,-2.9779,-2.9778,-2.9777,-2.9776,-2.9792,-2.9794,-2.9795,-2.9826,0,0,-2.98,-2.9801,0,0,0,0,0,0,0,0,-2.9748,-2.9751,-2.9773,-2.9773,-2.9773,-2.9784,-2.9785,-2.9806,-2.9779,-2.9776,-2.9777,-2.9775,-2.9791,-2.9792,-2.9798,-2.9827,-2.9827,-2.98,-2.9801,-2.9802,-2.9803,0,0,0,0,0,0,0,-2.9746,-2.975,-2.9786,-2.9774,-2.9773,-2.9768,-2.977,-2.9789,-2.9789,-2.9777,-2.9775,-2.9778,-2.979,-2.9796,-2.9798,-2.9828,-2.98,-2.9802,-2.9803,-2.9803,-2.988,-2.9881,0,0,0,0,0,0,-2.9746,-2.9749,-2.9785,-2.9786,-2.9757,-2.977,-2.9772,-2.9782,-2.9789,-2.9789,-2.9778,-2.9777,-2.9794,-2.9796,-2.9799,-2.9834,-2.9802,-2.9804,-2.9804,-2.9879,-2.9881,-2.9882,0,0,0,0,0,0,-2.9745,-2.9749,-2.9784,-2.9767,-2.9771,-2.9772,-2.9783,-2.9782,-2.9788,-2.979,-2.979,-2.9785,-2.9793,-2.9796,-2.9819,-2.9834,-2.9804,-2.9806,-2.9878,-2.988,-2.9881,-2.9905,0,0,0,0,0,0,-2.9743,-2.9749,-2.9761,-2.9768,-2.9772,-2.9805,-2.9784,-2.9783,-2.9791,-2.9789,-2.9796,-2.9796,-2.9793,-2.9817,-2.982,-2.9836,-2.9807,-2.9877,-2.9879,-2.9881,-2.9903,-2.9907,-2.9911,0,0,0,0,0,-2.9742,-2.9767,-2.9762,-2.9766,-2.9788,-2.9806,-2.9809,-2.9805,-2.9793,-2.9804,-2.9805,-2.9796,-2.9832,-2.9819,-2.9823,-2.9839,-2.9876,-2.9878,-2.988,-2.9901,-2.9906,-2.9911,0,0,0,0,0,0,-2.9763,-2.9768,-2.9762,-2.9791,-2.9798,-2.9803,-2.9818,-2.9811,-2.9821,-2.9819,-2.9813,-2.9815,-2.9838,-2.9841,-2.9827,-2.9868,-2.9852,-2.9855,-2.9866,-2.9871,-2.9875,-2.9873,-2.9808,0,0,0,0,0,-2.9771,-2.9786,-2.979,-2.9814,-2.9818,-2.9818,-2.9826,-2.9822,-2.9829,-2.9832,-2.9835,-2.9842,-2.9854,-2.9863,-2.9875,-2.9903,-2.9904,-2.9916,-2.992,-2.9923,-2.9926,-2.994,-2.9945,-2.989,-2.989,-2.989,0,0,-2.9788,-2.9792,-2.9802,-2.9819,-2.9824,-2.9839,-2.982,-2.9837,-2.9848,-2.9834,-2.9856,-2.9858,-2.9865,-2.989,-2.9902,-2.9893,-2.9942,-2.9926,-2.9929,-2.993,-2.9943,-2.9948,-2.9953,-2.9891,-2.9891,-2.9891,0,0,-2.9825,-2.9831,-2.9852,-2.9857,-2.9865,-2.9864,-2.9869,-2.9875,-2.9876,-2.9897,-2.9887,-2.9899,-2.9921,-2.9927,-2.9932,-2.997,-2.9962,-2.9974,-2.9995,-3.0009,-3.0013,-3.0017,-3.003,-3.0035,-2.9977,-2.9977,-2.9977,0,-2.9845,-2.9868,-2.9863,-2.988,-2.9887,-2.9875,-2.9896,-2.9901,-2.9912,-2.9917,-2.9908,-2.9935,-2.9939,-2.9964,-2.9974,-2.9979,-2.9984,-2.9974,-3.0013,-3.0017,-3.0021,-3.0033,-3.0038,-2.9979,-2.9979,-2.9978,-2.9978,0,-2.9891,-2.9907,-2.9922,-2.9933,-2.9942,-2.9961,-2.9958,-2.9967,-2.9962,-2.9962,-2.9983,-2.9987,-2.9999,-3.0005,-3.0001,-3.003,-3.0024,-3.0014,-2.9997,-3.0027,-3.0039,-3.0043,-2.9981,-2.998,-2.998,-2.998,0,0,-2.9944,-2.9951,-2.9957,-2.9961,-2.9968,-2.998,-2.9997,-3.0009,-3.0017,-3.0025,-3.0038,-3.0057,-3.0047,-3.0054,-3.0049,-3.0061,-3.009,-3.005,-3.005,-3.0056,-3.0121,-3.0128,-3.0134,-3.0084,-3.0085,-3.0086,-3.012,0,-2.9981,-3.0012,-3.0007,-3.0036,-3.005,-3.0038,-3.0053,-3.0059,-3.0059,-3.007,-3.007,-3.0082,-3.0069,-3.0073,-3.0084,-3.0084,-3.0103,-3.0082,-3.0096,-3.0097,-3.0095,-3.014,-3.0148,-3.018,-3.0125,-3.0126,-3.0126,0,-3.0029,-3.0038,-3.0069,-3.0072,-3.0078,-3.0092,-3.0101,-3.0112,-3.0118,-3.0117,-3.0123,-3.0117,-3.0133,-3.0116,-3.0138,-3.0124,-3.0129,-3.013,-3.0131,-3.0132,-3.0113,-3.0141,-3.019,-3.0195,-3.0133,-3.0133,-3.0132,0,-3.0063,-3.0083,-3.0104,-3.0108,-3.0113,-3.0123,-3.0125,-3.013,-3.0137,-3.0145,-3.0149,-3.0159,-3.0164,-3.0172,-3.0168,-3.0156,-3.019,-3.0173,-3.0189,-3.0189,-3.0197,-3.0196,-3.0247,-3.0201,-3.0201,-3.0201,-3.0201,0,-3.0105,-3.0124,-3.0119,-3.0131,-3.0152,-3.0146,-3.0166,-3.0167,-3.0171,-3.0183,-3.0173,-3.0185,-3.0179,-3.0189,-3.0186,-3.0204,-3.0207,-3.0206,-3.0205,-3.0206,-3.0206,-3.021,-3.0207,-3.0202,-3.0202,-3.0202,-3.0202,0,-3.0146,-3.0144,-3.0165,-3.0168,-3.0169,-3.0184,-3.0186,-3.0197,-3.0196,-3.0211,-3.0214,-3.0212,-3.0224,-3.0221,-3.0234,-3.0231,-3.0254,-3.025,-3.0252,-3.0251,-3.0267,-3.0265,-3.0321,-3.0327,-3.0278,-3.0279,-3.0279,0,-3.0173,-3.0187,-3.0191,-3.0198,-3.0202,-3.0214,-3.022,-3.0215,-3.0222,-3.0228,-3.0239,-3.025,-3.0258,-3.0277,-3.0277,-3.0286,-3.0282,-3.0301,-3.0284,-3.0285,-3.0282,-3.028,-3.0281,-3.0305,-3.0305,-3.0306,-3.0306,0,-3.022,-3.0218,-3.0228,-3.0237,-3.0246,-3.0253,-3.0259,-3.0265,-3.026,-3.0268,-3.028,-3.0287,-3.0299,-3.031,-3.0319,-3.032,-3.0312,-3.0311,-3.0315,-3.0317,-3.0317,-3.0316,-3.0261,-3.031,-3.031,-3.0309,-3.0309,-3.0309,-3.0255,-3.0266,-3.027,-3.0281,-3.0285,-3.0291,-3.0301,-3.0301,-3.0311,-3.0321,-3.0317,-3.033,-3.0334,-3.0344,-3.0347,-3.0357,-3.035,-3.0356,-3.0357,-3.0359,-3.036,-3.0316,-3.0359,-3.0359,-3.0359,-3.0358,-3.0358,0,-3.0301,-3.0302,-3.0313,-3.0321,-3.033,-3.0321,-3.0327,-3.0334,-3.0346,-3.0351,-3.0359,-3.0372,-3.0382,-3.0382,-3.0391,-3.0399,-3.0395,-3.0401,-3.04,-3.0401,-3.0367,-3.0362,-3.0404,-3.0404,-3.0404,-3.0404,-3.0404,-3.0404,-3.0326,-3.0344,-3.0342,-3.0362,-3.0363,-3.0376,-3.038,-3.0385,-3.0388,-3.0403,-3.0411,-3.0411,-3.0413,-3.0422,-3.0431,-3.043,-3.0434,-3.0441,-3.0439,-3.0408,-3.0403,-3.0399,-3.0394,-3.0442,-3.0442,-3.0472,-3.0472,-3.0472]}]]